Powrót do katalogu

STARLINK-3610

AktywnyŁącznośćVLEO
NORAD 51812·PAYLOAD·🇺🇸 United States

Wystrzelony Feb 25, 2022 z Vandenberg Space Force Base

Loading…

Następne Przeloty (najbliższe 24 godziny)

TLE

ŚwieżeSource: CelesTrak SupGP

Epoka: Sep 15, 2026, 02:32 UTC

1 51812C 22017AW  26258.10604167 -.00010801  00000+0 -31908-3 0  2580
2 51812  53.1595 189.2693 0001278  84.9848 287.8746 15.34399216    10

Śledź STARLINK-3610 w czasie rzeczywistym z AllMySat

Download on the App Store